Regional Weather Roundup
Issued by NWS Goodland, KS

Home | Current Version | Previous Version | Graphics & Text | Print | Product List | Glossary On
Versions: 1 2 3 4 5 6 7 8 9 10 11 12 13 14 15 16 17 18 19 20 21 22 23 24 25 26 27 28 29 30 31 32 33 34 35 36 37 38 39 40 41 42 43 44 45 46 47 48 49 50
630
ASUS43 KGLD 290359
RWRGLD

GOODLAND FORECAST AREA HOURLY WEATHER ROUNDUP
NATIONAL WEATHER SERVICE GOODLAND KS
1000 PM MDT SAT MAY 28 2016

...OFFICIAL OBSERVATIONS...

CITY           SKY/WX    TMP DP  RH WIND       PRES   REMARKS
GOODLAND KS    CLEAR     64  46  52 S7        30.08R
HILL CITY KS   CLEAR     63  54  72 CALM      30.02R
IMPERIAL NEB   CLOUDY    64  55  72 E8        30.05R
MCCOOK NEB     CLEAR     61  51  70 CALM      30.02R
AKRON CO       CLOUDY    58  40  51 S10       30.11R
BURLINGTON CO  CLEAR     58  47  66 NW7       30.12R
LIMON CO       CLOUDY    58  41  53 E8        30.15F
$$

...UNOFFICIAL OBSERVATIONS...

CITY           SKY/WX    TMP DP  RH WIND       PRES   REMARKS
GOVE KS          N/A     64  32  30 MISG        N/A
LENORA KS        N/A     63  32  31 MISG        N/A
SHARON SPRINGS   N/A     60  51  73 SE9         N/A
TRIBUNE KS     CLEAR     59  54  82 CALM      30.10R
KIT CARSON CO    N/A     59  51  75 CALM        N/A
YUMA CO          N/A     59  49  70 NW5         N/A
$$




USA.gov is the U.S. government's official web portal to all federal, state and local government web resources and services.